Current Version              Previous Version:    01  02  03  04  05  06  07  08  09  10  11  12  13  14  15  16  17  18  19  20  21  22  23  24  25  26  27  28  29  30  
   31  32  33  34  35  36  37  38  39  40  41  42  43  44  45  46  47  48  49  50  51  52  53  54  55  56  57  58  59  60  

[Printable]
410
ASUS44 KLUB 160901
RWRTX
WEST TEXAS WEATHER ROUNDUP
NATIONAL WEATHER SERVICE LUBBOCK TX
400 AM CDT WED APR 16 2014

NOTE: "FAIR" INDICATES FEW OR NO CLOUDS BELOW 12,000 FEET WITH NO
SIGNIFICANT WEATHER AND/OR OBSTRUCTIONS TO VISIBILITY.

TXZ004-006>008-010-012-014-016-OKZ002-161000-
TEXAS PANHANDLE/OKLAHOMA PANHANDLE

CITY           SKY/WX    TMP DP  RH WIND       PRES   REMARKS
AMARILLO       MOCLDY    48   8  19 S22       29.83F
BORGER         MOCLDY    53   8  16 S12G22    29.79F
DALHART        PTCLDY    46  12  25 S10       29.75S
GUYMON         CLEAR     50  13  22 S17       29.70S
$$

TXZ026-029-035-045-048-161000-
SOUTHERN PANHANDLE/SOUTH PLAINS/ROLLING PLAINS

CITY           SKY/WX    TMP DP  RH WIND       PRES   REMARKS
CHILDRESS      MOCLDY    49  14  24 S14       29.90F
LUBBOCK        MOCLDY    48  10  21 S17       29.89F
$$

TXZ052-054-060>062-072-078-127-140-154-169-161000-
PERMIAN BASIN/CONCHO VALLEY/BIG COUNTRY/EDWARDS PLATEAU

CITY           SKY/WX    TMP DP  RH WIND       PRES   REMARKS
ABILENE        PTCLDY    50  20  30 S15G23    29.96F
BROWNWOOD      PTCLDY    45  27  49 SE10      30.04F
JUNCTION       CLEAR     47  21  35 CALM      30.04F
MIDLAND        MOCLDY    51  16  24 S18       29.92F
ODESSA         MOCLDY    51  14  22 S14G23    29.92F
SAN ANGELO     PTCLDY    50  20  30 S10       29.99F
WINK           MOCLDY    51  14  22 SE16      29.88F
$$

TXZ055-058-074-075-080-082-161000-
FAR WEST/SOUTHWEST MOUNTAINS/TRANS PECOS

CITY           SKY/WX    TMP DP  RH WIND       PRES   REMARKS
DRYDEN           N/A     47  15  27 NE6       29.97F
EL PASO        PTCLDY    56   4  12 CALM      29.90F
FORT STOCKTON  PTCLDY    50  15  24 SE16      29.93F
GUADALUPE PASS PTCLDY    51  10  19 W9        29.97S
MARFA          PTCLDY    34   3  27 N9        30.01F WCI  26
PECOS          CLEAR     44  13  28 E6        29.88F
PRESIDIO       FAIR      57  13  17 N9        29.92F
$$

TXZ014-016-019-021>030-083-161000
TEXAS TECH WEST TEXAS MESONET/TEXAS PANHANDLE/NORTHERN SOUTH PLAINS

CITY           SKY/WX    TMP DP  RH WIND       PRES   REMARKS
ABERNATHY 5ENE   N/A     47   9  21 S16       29.89F
AMARILLO 9NNE    N/A     51   9  18 S24       29.79F
AMARILLO 7SSE    N/A     47   9  20 S17       29.84S
AMHERST 1NE      N/A     46   6  19 S10       29.88S
BOOTLEG 11WNW    N/A     46   5  19 SW15      29.85S
CANADIAN 6E      N/A     49  13  23 S16       29.81S
CAPROCK CYN SP   N/A     52  11  19 S24       29.85F
CHILDRESS 2NNE   N/A     49  14  24 S14       29.89F
CLARENDON 2WSW   N/A     46   9  22 S13       29.86S
CLAUDE 12SW      N/A     50   9  18 S17       29.85F
DIMMITT 2NE      N/A     45   9  23 S20       29.85F
FLOYDADA 2NNE    N/A     46   9  22 S16       29.89S
FRIONA 2NE       N/A     46   7  20 S13       29.85F
GOODLETT 3W      N/A     51  16  24 S15       29.91F
HART 3N          N/A     44  11  25 S14       29.87S
HEREFORD 2NW     N/A     47   7  19 S17       29.83F
MCLEAN 1E        N/A     46  11  23 S18       29.84S
MEMPHIS 1NE      N/A     48  11  22 SE9       29.88F
MULESHOE 2SSW    N/A     46   6  19 S14       29.86F
OLTON 6S         N/A     42  11  28 S10       29.88S
PALO DURO SP     N/A     49   9  20 S10       29.86S
PAMPA 2E         N/A     44  11  25 SE14      29.83S
PLAINVIEW 1S     N/A     47   9  21 S16       29.87F
TULIA 2ENE       N/A     46  10  23 S20       29.84F
TURKEY 2WSW      N/A     53  12  19 S16       29.86F
UMBARGER 3NNE    N/A     46   8  20 SW20      29.82F
$$

TXZ033>036-039>041-045>048-161000
TEXAS TECH WEST TEXAS MESONET/SOUTH PLAINS

CITY           SKY/WX    TMP DP  RH WIND       PRES   REMARKS
AIKEN 3WSW       N/A     44  12  26 S15       29.89F
ANDREWS 2NE      N/A     49  10  20 S14       29.91F
ANTON 6SSW       N/A     44   8  23 S14       29.88F
BROWNFIELD 2S    N/A     44   8  22 S12       29.91S
DENVR CTY 7WNW   N/A     45  10  23 S12       29.89F
GAIL 2ESE        N/A     44  13  29 S7        29.93F
LAMESA 2SE       N/A     45  13  27 S13       29.93F
LEVELLAND 4S     N/A     45   6  20 S13       29.89F
LUBBOCK 3WNW     N/A     48   8  20 S16       29.90F
MORTON 1ENE      N/A     45   7  20 S15       29.87F
ODONNELL 1N      N/A     46  10  23 S13       29.91F
PLAINS 3N        N/A     45   8  21 S10       29.89F
RALLS 1SE        N/A     46  11  24 S15       29.91F
REESE CENTER     N/A     45   7  20 S16       29.89F
SEAGRAVES 1SW    N/A     46  10  23 S9        29.91F
SEMINOLE 2NNE    N/A     48  11  22 S15       29.90F
SLATON 2NE       N/A     46  10  23 S17       29.91S
SNYDER 3E        N/A     46  14  27 S12       29.93S
SUNDOWN 8SW      N/A     45   8  22 S12       29.89F
TAHOKA 3NNE      N/A     44   9  24 S14       29.91S
WOLFFORTH 6SSW   N/A     44   8  22 S13       29.90S
$$

TXZ031-032-036>038-042>044-161000-
TEXAS TECH WEST TEXAS MESONET/ROLLING PLAINS

CITY           SKY/WX    TMP DP  RH WIND       PRES   REMARKS
ASPERMONT 3NE    N/A     46  15  28 S6        29.94S
FLUVANNA 3WNW    N/A     45  12  26 S15       29.92F
GRAHAM 5SSW      N/A     49  11  21 S20       29.92S
GUTHRIE 10WSW    N/A     48  13  24 S14       29.92R
HASKELL 1NW      N/A     49  19  29 S12       29.94F
KNOX CITY 3NW    N/A     47  18  31 S7        29.94F
LK A HENRY 1NW   N/A     51  14  23 S14       29.92S
NORTHFIELD 1S    N/A     49  11  21 S12       29.89S
ODELL 4ENE       N/A     50  20  31 SE15      29.95F
PADUCAH 10SW     N/A     47  13  25 S14       29.90S
POST 1NE         N/A     50  12  21 S15       29.91S
RRING SPRGS 3N   N/A     49  13  23 S16       29.88F
SEYMOUR 3NW      N/A     50  22  32 SE16      29.95F
SPUR 1W          N/A     43  11  27 S6        29.92S
WEINERT 2NNE     N/A     50  20  29 S14       29.95S
WHITE RVR 6NE    N/A     48  11  22 S15       29.91F
$$

TXZ052-054-060>062-072-078-127-140-154-169-161000-
TEXAS TECH WEST TEXAS MESONET/PERMIAN BASIN/
CONCHO VALLEY/BIG COUNTRY/EDWARDS PLATEAU

CITY           SKY/WX    TMP DP  RH WIND       PRES   REMARKS
COYANOSA 2N      N/A     51  13  22 SE13      29.90F
JUNCTION 1SSW    N/A     47  21  35 SE9       30.04F
MERTZON 3NNE     N/A     48  18  29 S13       29.99S
SAN ANGELO 7NW   N/A     46  16  29 S7        30.00S
STRLNG CT 4WSW   N/A     48  16  28 SE12      29.97F
ST LAWRNCE 5SW   N/A     47  14  27 S17       29.96F
WALL 1E          N/A     49  17  28 SE12      29.99F
$$

TXZ055-058-074-075-080-082-161000-
TEXAS TECH WEST TEXAS MESONET/FAR WEST/SOUTHWEST MOUNTAINS/TRANS PECOS

CITY           SKY/WX    TMP DP  RH WIND       PRES   REMARKS
PRSMN GAP BBNP   N/A     53  14  21 NE7       29.97F
$$